Weather reports worldwide

Advertisment
Nice, France (7690): temperature & dewpoint: 11.10.2018 08:00:00 - 17.10.2018 08:00:00 (CEST)Nice, France (7690): temperature 5cm: 11.10.2018 08:00:00 - 17.10.2018 08:00:00 (CEST)Nice, France (7690): temperature -20cm & temperature -100cm: 11.10.2018 08:00:00 - 17.10.2018 08:00:00 (CEST)Nice, France (7690): wind speed & gusts: 11.10.2018 08:00:00 - 17.10.2018 08:00:00 (CEST)Nice, France (7690): wind direction: 11.10.2018 08:00:00 - 17.10.2018 08:00:00 (CEST)Nice, France (7690): reduced air pressure: 11.10.2018 08:00:00 - 17.10.2018 08:00:00 (CEST)Nice, France (7690): visibility: 11.10.2018 08:00:00 - 17.10.2018 08:00:00 (CEST)Nice, France (7690): sunshine duration: 11.10.2018 08:00:00 - 17.10.2018 08:00:00 (CEST)Nice, France (7690): precipitation: 11.10.2018 08:00:00 - 17.10.2018 08:00:00 (CEST)
Date & Time tt [°C] td [°C] tt 5cm [°C] tt -20cm [°C] tt -100cm [°C] ff [km/h] ff [kn] fx [km/h] fx [kn] dd ppp [hPa] vv [km] sd [min] rr [mm]
17.10.2018 08:00:00 18,5 12,5 17,8 21,1 23,0 12 7 20 11 NNW 1015,9 30 0 0,0
17.10.2018 07:00:00 18,8 12,5 18,0 21,1 22,9 16 9 22 12 NNW 1015,6 30 0 0,0
17.10.2018 06:00:00 18,5 12,7 18,0 21,1 23,0 16 9 21 12 NNW 1015,7 30 0 0,0
17.10.2018 05:00:00 18,5 12,9 17,7 21,1 23,0 15 8 20 11 NNW 1015,9 30 0 0,0
17.10.2018 04:00:00 18,2 13,5 16,9 21,2 22,9 11 6 16 9 NW 1016,4 30 0 0,0
17.10.2018 03:00:00 17,8 13,9 16,6 21,1 23,0 4 2 21 11 W 1016,9 30 0 0,0
17.10.2018 02:00:00 17,8 13,7 15,9 21,2 22,9 16 9 22 12 NNW 1017,0 30 0 0,0
17.10.2018 01:00:00 18,0 13,9 17,0 21,1 22,9 9 5 23 12 NW 1017,7 25 0 0,0
17.10.2018 00:00:00 18,4 13,7 17,4 21,2 23,1 16 8 25 14 NNW 1017,6 25 0 0,0
16.10.2018 23:00:00 18,1 13,8 16,1 21,2 23,0 16 8 22 12 NNW 1017,9 25 0 0,0
16.10.2018 22:00:00 19,0 13,2 17,8 21,2 23,0 16 9 30 16 NNW 1017,9 25 0 0,0
16.10.2018 21:00:00 19,1 13,1 18,1 21,2 23,2 13 7 24 13 NNW 1017,6 25 0 0,0
16.10.2018 20:00:00 19,0 13,4 16,5 21,2 23,0 11 6 19 11 NW 1017,7 15 0 0,0
16.10.2018 19:00:00 19,3 13,2 18,7 21,2 23,2 13 7 22 12 NNW 1017,4 15 0 0,0
16.10.2018 18:00:00 19,5 13,4 18,9 21,3 23,0 6 3 17 9 NW 1017,2 15 0 0,0
16.10.2018 17:00:00 19,8 13,5 19,3 21,3 23,1 9 5 17 9 NNE 1017,1 20 0 0,0
16.10.2018 16:00:00 20,1 13,1 20,3 21,3 23,1 11 6 24 13 NNE 1017,3 15 0 0,0
16.10.2018 15:00:00 20,1 14,0 17,1 21,3 23,1 14 7 21 12 NE 1017,5 12 0 0,2
16.10.2018 14:00:00 17,7 14,4 17,3 21,3 23,0 11 6 24 13 N 1017,9 12 0 0,2
16.10.2018 13:00:00 16,9 14,2 15,4 21,3 23,0 11 6 23 13 NNW 1018,2 12 0 0,4
16.10.2018 12:00:00 16,4 13,3 14,9 21,3 23,1 16 8 22 12 NNW 1018,3 7 0 1,8
16.10.2018 11:00:00 17,5 13,8 15,0 21,3 23,1 7 4 23 13 NNE 1018,2 8 0 0,8
16.10.2018 10:00:00 17,0 11,5 14,6 21,3 23,2 18 10 25 14 NW 1017,4 12 0 0,4
16.10.2018 09:00:00 18,6 8,8 18,0 21,3 23,1 18 10 28 15 NW 1016,7 15 0 0,0
16.10.2018 08:00:00 18,6 8,5 18,0 21,4 23,1 17 9 22 12 NW 1015,8 28 0 0,0
16.10.2018 07:00:00 18,9 8,5 18,4 21,4 23,0 16 9 24 13 NW 1015,6 30 0 0,0
16.10.2018 06:00:00 19,2 8,2 18,5 21,4 23,1 14 7 18 10 NW 1015,6 30 0 0,0
16.10.2018 05:00:00 18,9 8,5 18,4 21,4 23,1 14 8 18 10 NW 1015,3 30 0 0,0
16.10.2018 04:00:00 19,1 8,7 18,4 21,4 23,2 14 8 18 10 NW 1015,4 30 0 0,0
16.10.2018 03:00:00 18,9 9,1 18,0 21,4 23,1 14 7 17 9 NW 1016,1 30 0 0,0
16.10.2018 02:00:00 19,2 9,1 18,6 21,4 23,2 11 6 19 10 NNW 1016,3 30 0 0,0
16.10.2018 01:00:00 22,2 8,3 21,0 21,4 23,1 13 7 32 17 NE 1016,3 30 0 0,0
16.10.2018 00:00:00 23,0 9,0 20,6 21,4 23,2 15 8 26 14 NE 1016,2 30 0 0,0
15.10.2018 23:00:00 22,4 7,4 21,2 21,4 23,1 12 6 40 21 NNE 1016,0 20 0 0,0
15.10.2018 22:00:00 23,2 9,9 21,8 21,5 23,2 29 16 40 22 ENE 1015,5 20 0 0,0
15.10.2018 21:00:00 22,7 12,9 21,8 21,5 23,3 28 15 41 22 E 1015,2 20 0 0,0
15.10.2018 20:00:00 22,6 13,4 21,7 21,5 23,2 30 16 41 22 E 1015,2 20 0 0,0
15.10.2018 19:00:00 22,5 14,1 21,7 21,5 23,3 29 16 46 25 E 1014,7 20 0 0,0
15.10.2018 18:00:00 22,6 13,1 22,2 21,5 23,2 36 19 46 25 E 1014,4 20 0 0,0
15.10.2018 17:00:00 22,5 14,3 22,5 21,5 23,3 36 19 48 26 E 1014,2 20 0 0,0
15.10.2018 16:00:00 22,5 14,9 22,2 21,5 23,3 39 21 53 29 ESE 1014,1 20 0 0,0
15.10.2018 15:00:00 22,2 14,3 22,3 21,6 23,2 42 23 55 30 E 1013,6 20 0 0,0
15.10.2018 14:00:00 22,5 14,3 23,1 21,6 23,2 39 21 49 27 E 1014,0 20 24 0,0
15.10.2018 13:00:00 22,7 14,0 23,6 21,6 23,3 35 19 48 26 E 1015,0 20 3 0,0
15.10.2018 12:00:00 22,5 14,1 22,9 21,6 23,2 39 21 50 27 E 1015,0 20 11 0,0
15.10.2018 11:00:00 22,4 13,7 22,2 21,6 23,2 34 18 44 24 E 1014,8 25 52 0,0
15.10.2018 10:00:00 18,9 9,7 17,7 21,6 23,3 16 9 27 14 ENE 1014,7 25 20 0,0
15.10.2018 09:00:00 17,0 9,2 15,5 21,6 23,2 16 8 27 15 NNW 1014,3 25 25 0,0
15.10.2018 08:00:00 16,2 8,9 15,5 21,6 23,3 15 8 22 12 NNW 1014,2 25 0 0,0
15.10.2018 07:00:00 16,3 8,8 15,6 21,7 23,3 17 9 23 13 NNW 1014,2 25 0 0,0
15.10.2018 06:00:00 16,6 9,0 16,0 21,6 23,3 16 9 23 13 NW 1014,6 20 0 0,0
15.10.2018 05:00:00 16,8 9,2 16,3 21,7 23,3 16 9 23 12 NNW 1014,6 20 0 0,0
15.10.2018 04:00:00 17,1 9,5 16,1 21,7 23,3 16 8 22 12 NNW 1014,9 20 0 0,0
15.10.2018 03:00:00 17,0 9,9 16,3 21,7 23,3 15 8 18 10 NW 1015,3 20 0 0,0
15.10.2018 02:00:00 17,2 10,3 16,5 21,7 23,4 15 8 19 10 NNW 1015,4 20 0 0,0
15.10.2018 01:00:00 17,8 10,7 17,0 21,7 23,3 12 7 19 11 NW 1015,7 20 0 0,0
15.10.2018 00:00:00 18,0 10,8 17,2 21,6 23,3 14 8 19 10 NNW 1015,8 20 0 0,0
14.10.2018 23:00:00 18,3 10,9 17,6 21,7 23,4 10 5 18 10 NNW 1016,0 20 0 0,0
14.10.2018 22:00:00 18,7 11,0 18,0 21,6 23,2 11 6 21 12 NNW 1015,9 21 0 0,0
14.10.2018 21:00:00 19,1 11,4 18,3 21,7 23,4 11 6 30 16 NNW 1015,7 15 0 0,0
14.10.2018 20:00:00 22,2 14,8 21,0 21,7 23,3 20 11 31 17 E 1015,4 15 0 0,0
14.10.2018 19:00:00 21,9 15,7 21,0 21,7 23,4 24 13 33 18 E 1015,0 10 0 0,0
14.10.2018 18:00:00 21,6 16,1 21,0 21,7 23,4 25 14 38 20 E 1015,3 9 2 0,0
14.10.2018 17:00:00 22,1 16,1 22,3 21,7 23,3 34 18 41 22 ESE 1015,5 9 49 0,0
14.10.2018 16:00:00 22,4 16,7 24,4 21,7 23,3 33 18 41 22 ESE 1015,7 7 60 0,0
14.10.2018 15:00:00 22,4 16,4 25,1 21,8 23,4 24 13 32 17 E 1016,4 6 60 0,0
14.10.2018 14:00:00 22,6 15,7 25,7 21,8 23,4 20 11 29 16 E 1017,0 7 60 0,0
14.10.2018 13:00:00 22,4 14,3 27,0 21,8 23,3 5 3 9 5 E 1017,9 20 60 0,0
14.10.2018 12:00:00 22,4 13,2 24,3 21,8 23,4 2 1 17 9 ESE 1018,1 20 60 0,0
14.10.2018 11:00:00 20,0 11,2 20,9 21,8 23,4 16 9 25 14 NNW 1018,5 30 60 0,0
14.10.2018 10:00:00 17,9 10,8 17,6 21,9 23,4 19 10 29 16 NNW 1018,6 30 60 0,0
14.10.2018 09:00:00 16,1 10,4 15,3 21,9 23,4 22 12 28 15 NNW 1018,2 30 54 0,0
14.10.2018 08:00:00 15,6 10,4 15,0 21,9 23,4 22 12 29 15 NNW 1018,1 30 0 0,0
14.10.2018 07:00:00 15,7 10,5 15,1 21,9 23,4 18 10 31 17 NNW 1018,4 30 0 0,0
14.10.2018 06:00:00 16,0 10,7 15,4 21,9 23,5 22 12 27 15 NNW 1018,5 30 0 0,0
14.10.2018 05:00:00 16,2 10,9 15,5 21,9 23,4 19 10 24 13 NNW 1018,6 30 0 0,0
14.10.2018 04:00:00 16,3 11,2 15,6 21,9 23,4 15 8 24 13 NNW 1018,9 30 0 0,0
14.10.2018 03:00:00 16,4 11,3 15,6 21,8 23,4 12 6 22 12 NNW 1019,5 30 0 0,0
14.10.2018 02:00:00 16,7 11,4 15,9 21,9 23,5 16 9 23 12 NNW 1019,7 30 0 0,0
14.10.2018 01:00:00 16,8 11,3 16,0 21,8 23,5 16 9 21 12 NNW 1019,9 30 0 0,0
14.10.2018 00:00:00 17,1 11,1 16,4 21,8 23,5 12 6 22 12 NNW 1020,4 30 0 0,0
13.10.2018 23:00:00 17,5 11,3 16,7 21,8 23,5 14 8 18 10 NNW 1020,7 30 0 0,0
13.10.2018 22:00:00 18,0 11,8 17,1 21,8 23,5 11 6 16 8 NNW 1020,6 30 0 0,0
13.10.2018 21:00:00 18,4 12,4 17,5 21,8 23,4 14 7 16 9 NW 1020,5 30 0 0,0
13.10.2018 20:00:00 20,6 13,5 18,4 21,8 23,5 4 2 9 5 NE 1020,7 30 0 0,0
13.10.2018 19:00:00 21,2 14,6 20,0 21,8 23,6 5 3 10 6 ENE 1020,6 30 29 0,0
13.10.2018 18:00:00 22,0 14,9 23,4 21,8 23,4 8 4 17 9 E 1020,6 30 60 0,0
13.10.2018 17:00:00 22,4 14,8 24,9 21,8 23,5 14 8 18 10 E 1020,9 30 60 0,0
13.10.2018 16:00:00 22,5 14,9 25,7 21,9 23,5 15 8 22 12 E 1021,4 30 60 0,0
13.10.2018 15:00:00 22,3 15,2 25,7 21,9 23,6 19 10 28 15 E 1021,7 30 60 0,0
13.10.2018 14:00:00 22,9 15,0 26,2 21,9 23,6 19 10 24 13 E 1022,3 30 60 0,0
13.10.2018 13:00:00 22,9 15,0 25,9 21,9 23,6 19 10 25 14 E 1023,0 30 60 0,0
13.10.2018 12:00:00 22,5 15,1 27,1 21,9 23,6 7 4 10 5 E 1023,4 30 60 0,0
13.10.2018 11:00:00 22,3 14,4 24,6 21,9 23,6 4 2 15 8 NE 1023,7 30 60 0,0
13.10.2018 10:00:00 20,1 12,8 20,1 21,9 23,6 13 7 25 13 NNW 1023,6 30 60 0,0
13.10.2018 09:00:00 18,3 12,3 17,4 21,9 23,6 17 9 24 13 NNW 1023,3 30 56 0,0
13.10.2018 08:00:00 17,1 12,2 16,1 21,9 23,6 15 8 21 12 NNW 1023,2 30 0 0,0
13.10.2018 07:00:00 17,5 12,6 16,5 21,9 23,6 14 7 26 14 NNW 1022,9 30 0 0,0
13.10.2018 06:00:00 17,4 12,7 16,6 21,9 23,6 13 7 21 11 N 1023,1 30 0 0,0
13.10.2018 05:00:00 17,7 13,0 16,9 21,9 23,7 17 9 21 11 NNW 1023,5 30 0 0,0
13.10.2018 04:00:00 17,8 13,1 17,0 21,9 23,6 16 8 19 10 NNW 1023,5 30 0 0,0
13.10.2018 03:00:00 18,3 13,4 17,3 21,9 23,6 12 6 19 11 NNW 1023,6 30 0 0,0
13.10.2018 02:00:00 18,2 13,3 17,3 21,9 23,6 14 7 21 11 NNW 1023,8 30 0 0,0
13.10.2018 01:00:00 18,5 13,4 17,7 21,9 23,7 16 9 21 12 NNW 1024,0 30 0 0,0
13.10.2018 00:00:00 18,8 13,4 18,0 21,8 23,7 12 7 27 15 NNW 1024,3 30 0 0,0
12.10.2018 23:00:00 18,9 13,3 18,2 21,8 23,7 14 7 27 14 NNW 1024,5 30 0 0,0
12.10.2018 22:00:00 19,0 13,2 18,2 21,8 23,7 19 10 24 13 NNW 1024,5 30 0 0,0
12.10.2018 21:00:00 19,3 13,7 18,3 21,8 23,6 14 7 27 15 NNW 1024,5 30 0 0,0
12.10.2018 20:00:00 20,2 15,2 18,9 21,8 23,7 6 4 10 5 W 1024,4 30 0 0,0
12.10.2018 19:00:00 21,4 15,2 20,0 21,8 23,8 4 2 8 4 SSW 1023,9 50 26 0,0
12.10.2018 18:00:00 22,4 15,7 24,2 21,9 23,8 7 4 11 6 SSW 1023,7 50 43 0,0
12.10.2018 17:00:00 23,3 15,6 28,8 21,9 23,6 8 4 11 6 S 1023,7 50 60 0,0
12.10.2018 16:00:00 23,6 15,1 28,6 21,9 23,7 11 6 15 8 SSW 1023,9 50 60 0,0
12.10.2018 15:00:00 23,8 14,5 29,2 21,9 23,7 8 5 11 6 SSW 1024,1 50 60 0,0
12.10.2018 14:00:00 23,9 13,7 29,5 21,9 23,8 6 3 10 5 S 1024,3 50 60 0,0
12.10.2018 13:00:00 24,1 14,2 29,1 21,9 23,8 4 2 7 4 ESE 1024,5 50 60 0,0
12.10.2018 12:00:00 23,6 12,9 26,1 21,9 23,8 4 2 22 12 E 1024,8 50 60 0,0
12.10.2018 11:00:00 21,7 14,8 21,7 22,0 23,8 13 7 24 13 NNW 1024,8 50 60 0,0
12.10.2018 10:00:00 19,3 14,3 17,7 22,0 23,9 16 9 23 13 NNW 1024,4 50 23 0,0
12.10.2018 09:00:00 17,7 13,8 17,4 22,0 23,8 13 7 23 13 NNW 1023,8 50 14 0,0
12.10.2018 08:00:00 17,3 14,2 16,9 22,0 23,9 15 8 21 12 NNW 1023,3 50 0 0,0
12.10.2018 07:00:00 17,3 14,2 16,6 22,1 23,7 14 8 22 12 NNW 1022,9 50 0 0,0
12.10.2018 06:00:00 17,1 14,4 16,6 22,0 23,9 13 7 21 11 NNW 1022,5 50 0 0,0
12.10.2018 05:00:00 17,2 14,7 16,8 22,0 23,8 12 7 23 12 NNW 1022,1 50 0 0,0
12.10.2018 04:00:00 17,5 14,9 17,1 22,1 23,9 12 7 20 11 NNW 1022,2 50 0 0,0
12.10.2018 03:00:00 17,5 15,1 16,6 22,1 23,9 9 5 23 12 N 1021,8 50 0 0,0
12.10.2018 02:00:00 17,3 15,3 16,7 22,1 23,9 8 4 12 7 NNW 1021,7 50 0 0,0
12.10.2018 01:00:00 17,8 15,4 17,2 22,1 24,0 12 7 20 11 NNW 1021,6 50 0 0,0
12.10.2018 00:00:00 18,1 15,9 17,7 22,1 24,0 9 5 12 7 NNW 1021,5 50 0 0,0
11.10.2018 23:00:00 18,2 16,0 17,6 22,2 24,0 8 4 16 8 NNW 1021,3 50 0 0,0
11.10.2018 22:00:00 18,2 16,2 17,9 22,2 24,0 13 7 19 10 NW 1020,5 40 0 0,0
11.10.2018 21:00:00 18,4 16,6 18,0 22,2 24,1 7 4 10 6 NW 1020,2 30 0 0,0
11.10.2018 20:00:00 18,6 16,6 18,2 22,2 24,1 7 4 10 5 NNW 1019,8 20 0 0,0
11.10.2018 19:00:00 18,8 16,6 18,4 22,3 24,0 10 5 18 10 NNE 1019,0 30 1 0,0
11.10.2018 18:00:00 19,4 17,2 18,4 22,3 24,0 8 4 32 17 N 1018,5 30 0 0,4
11.10.2018 17:00:00 19,9 17,7 18,7 22,4 24,1 21 12 31 17 E 1018,1 3,5 0 2,2
11.10.2018 16:00:00 20,8 17,2 20,6 22,4 24,1 26 14 34 19 E 1017,7 20 0 0,0
11.10.2018 15:00:00 20,8 17,8 21,1 22,4 24,0 24 13 33 18 E 1017,3 20 0 0,0
11.10.2018 14:00:00 20,8 17,6 20,6 22,5 24,1 16 8 24 13 ENE 1017,2 20 6 0,0
11.10.2018 13:00:00 19,8 15,9 19,1 22,5 24,0 8 4 17 9 NE 1017,7 15 0 0,0
11.10.2018 12:00:00 19,6 17,2 18,0 22,5 24,1 10 5 18 10 NE 1017,8 9 0 0,2
11.10.2018 11:00:00 20,2 15,2 19,2 22,6 24,0 12 6 27 14 ENE 1017,3 30 0 0,0
11.10.2018 10:00:00 19,0 14,9 16,7 22,6 24,1 14 7 34 19 NNE 1016,6 30 0 0,0
11.10.2018 09:00:00 17,7 15,3 16,5 22,6 24,1 21 11 26 14 NNE 1016,0 20 0 0,2
11.10.2018 08:00:00 17,5 15,8 16,4 22,7 24,2 19 11 34 19 N 1015,4 15 0 0,6

tt = temperature
td = dewpoint
tt 5cm = temperature 5cm
tt -20cm = temperature -20cm
tt -100cm = temperature -100cm
ff = wind speed
fx = gusts
dd = wind direction
ppp = reduced air pressure
vv = visibility
sd = sunshine duration
rr = precipitation

Next stations